Williston, ND

2:12 PM CST on January 20, 2017 (GMT -0600)
Sloulin International

Weather History for KISN - October, 2013

Change the Weather History Date:

Tuesday, October 15, 2013

  Actual Average Record
Temperature  
Mean Temperature 40 °F 44 °F  
Max Temperature 55 °F 57 °F 82 °F (1953)
Min Temperature 24 °F 30 °F 14 °F (1992)
Degree Days  
Heating Degree Days 25 21  
Month to date heating degree days 284 275  
Since 1 July heating degree days 470 621  
Cooling Degree Days 0 0  
Month to date cooling degree days 0 0  
Year to date cooling degree days 405 455  
Moisture  
Dew Point 27 °F    
Average Humidity 62    
Maximum Humidity 92    
Minimum Humidity 32    
Precipitation  
Precipitation 0.00 in 0.03 in 1.42 in (1962)
Month to date precipitation 1.91 0.47  
Year to date precipitation 19.70 12.65  
Sea Level Pressure  
Sea Level Pressure 30.27 in    
Wind  
Wind Speed 4 mph (WSW)    
Max Wind Speed 14 mph    
Max Gust Speed 17 mph    
Visibility 10 miles    
Events      
T = Trace of Precipitation, MM = Missing Value Source: NWS Daily Summary

Daily Weather History Graph

Daily Weather History Graph

Search for Another Location

Airport or City:

Trip Planner

Search our weather history database for the weather conditions in past years. The results will help you decide how hot, cold, wet, or windy it might be!

Date:

Astronomy

Oct. 15, 2013 Rise Set
Actual Time 8:14 AM CDT 7:05 PM CDT
Civil Twilight 7:43 AM CDT 7:36 PM CDT
Nautical Twilight 7:06 AM CDT 8:12 PM CDT
Astronomical Twilight 6:30 AM CDT 8:48 PM CDT
Moon 5:23 PM CDT (10/15) 4:25 AM CDT (10/15)
Length of Visible Light 11h 53m
Length of Day
10h 50m
Waxing Gibbous, 88% of the Moon is Illuminated
Oct 15
Waxing Gibbous
Oct 18
Full
Oct 26
Last Quarter
Nov 3
New
Nov 9
First Quarter

Hourly Weather History & Observations

Time (CDT) Temp. Windchill Dew Point Humidity Pressure Visibility Wind Dir Wind Speed Gust Speed Precip Events Conditions
12:52 AM 37.9 °F 35.5 °F 30.0 °F 73% 30.36 in 10.0 mi NE 3.5 mph - N/A   Overcast
1:52 AM 35.1 °F - 30.0 °F 82% 30.36 in 10.0 mi Calm Calm - N/A   Clear
2:52 AM 30.9 °F - 27.0 °F 85% 30.36 in 10.0 mi Calm Calm - N/A   Clear
3:52 AM 28.0 °F - 25.0 °F 88% 30.35 in 10.0 mi Calm Calm - N/A   Clear
4:52 AM 28.9 °F 25.2 °F 26.1 °F 89% 30.35 in 10.0 mi NE 3.5 mph - N/A   Clear
5:52 AM 28.9 °F 22.8 °F 26.1 °F 89% 30.34 in 10.0 mi NE 5.8 mph - N/A   Clear
6:52 AM 26.1 °F - 23.0 °F 88% 30.35 in 10.0 mi Calm Calm - N/A   Clear
7:52 AM 25.0 °F - 21.9 °F 88% 30.36 in 10.0 mi Calm Calm - N/A   Clear
8:52 AM 26.1 °F - 23.0 °F 88% 30.37 in 9.0 mi Calm Calm - N/A   Clear
9:52 AM 32.0 °F - 28.0 °F 85% 30.37 in 10.0 mi Calm Calm - N/A   Clear
10:52 AM 37.0 °F 33.3 °F 30.0 °F 76% 30.36 in 10.0 mi South 4.6 mph - N/A   Clear
11:52 AM 43.0 °F 40.3 °F 33.1 °F 68% 30.33 in 10.0 mi Variable 4.6 mph - N/A   Clear
12:52 PM 48.9 °F - 30.0 °F 48% 30.29 in - WSW 5.8 mph - N/A   Clear
1:52 PM 52.0 °F - 26.1 °F 37% 30.26 in 9.0 mi West 10.4 mph 17.3 mph N/A   Clear
2:52 PM 53.1 °F - 26.1 °F 35% 30.23 in 9.0 mi WNW 10.4 mph - N/A   Clear
3:52 PM 54.0 °F - 25.0 °F 33% 30.21 in 9.0 mi NW 9.2 mph - N/A   Clear
4:52 PM 55.0 °F - 26.1 °F 33% 30.18 in 8.0 mi West 8.1 mph - N/A   Clear
5:52 PM 53.1 °F - 25.0 °F 34% 30.17 in 8.0 mi WSW 8.1 mph - N/A   Clear
6:52 PM 48.0 °F - 27.0 °F 44% 30.16 in 10.0 mi SW 5.8 mph - N/A   Clear
7:52 PM 42.1 °F 38.4 °F 27.0 °F 55% 30.16 in 10.0 mi WSW 5.8 mph - N/A   Clear
8:52 PM 42.1 °F 37.1 °F 26.1 °F 53% 30.15 in 10.0 mi WSW 8.1 mph - N/A   Clear
9:52 PM 36.0 °F 33.3 °F 26.1 °F 67% 30.14 in 10.0 mi SW 3.5 mph - N/A   Clear
10:52 PM 32.0 °F 28.7 °F 26.1 °F 79% 30.12 in 10.0 mi SSW 3.5 mph - N/A   Clear
11:52 PM 30.9 °F 27.5 °F 25.0 °F 79% 30.10 in 10.0 mi SW 3.5 mph - N/A   Clear